CAPE
0 0 0 36 157 153 173 262 503 487 624 465 378 381 24 163 146 40 232 301 109 165 407 602 686 892 1424 1316 1445 1853 1202 1205 1786 1866 1174 944 949 1148 1390 1661 1491 897 774
0 0 0 1 89 39 109 317 475 400 232 1 140 471 347 207 0 40 7 185 142 18 212 609 793 731 798 1473 1567 1223 1496 1109 1467 1911 1736 898 912 1457 1572 1648 1066 490 650
47 51 19 0 0 48 173 475 755 624 510 251 209 509 431 392 28 175 8 16 148 612 337 653 848 996 1012 722 1105 1492 1206 1539 1772 1805 1754 1593 1087 1458 1463 697 617 1181 1192
410 153 28 4 0 243 595 504 605 237 335 484 463 462 418 502 427 276 195 220 326 542 772 738 980 1151 982 960 1010 1274 1582 2012 1737 1705 1715 1466 1071 1558 1587 823 466 605 844
304 52 6 0 0 13 258 411 767 588 451 369 361 347 479 692 409 512 309 183 172 583 492 674 989 1183 769 1100 1189 1323 1528 1865 1806 1536 1941 1152 1241 1418 1620 770 1108 1119 1283
239 1 16 4 1 165 513 505 322 202 34 341 703 352 228 640 517 553 542 222 286 464 547 253 737 952 1003 1167 1344 1479 1554 1615 1845 1639 1828 1311 1270 1563 1411 722 510 859 741
7 149 24 0 0 0 260 467 130 117 90 227 433 305 62 10 547 321 233 518 570 541 578 463 209 531 838 1041 1359 1443 1633 1660 1763 1658 1844 1592 974 1253 877 295 557 819 628
37 243 66 71 6 20 181 583 380 115 0 0 85 203 17 149 256 516 372 529 642 546 535 531 543 478 508 729 1101 1321 1439 1636 1943 1737 1614 1593 1240 1087 892 538 416 1000 595
223 353 44 108 516 498 169 400 798 121 51 305 226 254 44 1 83 226 149 124 163 438 459 651 563 516 346 479 599 1295 1392 1369 1853 1971 1820 1656 1243 752 584 534 417 754 408
187 295 100 4 303 708 701 258 914 334 484 321 226 237 104 23 33 50 57 16 0 130 536 479 524 509 411 593 482 649 829 923 1277 1621 1902 1865 1565 917 1113 1097 980 745 398
164 254 262 312 315 343 420 495 568 777 844 641 131 1 177 28 20 40 1 3 84 185 231 577 512 552 444 498 490 502 434 526 683 833 1227 1680 1776 1696 1342 1212 979 722 571
802 598 513 288 501 610 769 817 1016 823 713 621 661 171 49 25 15 13 17 73 20 208 264 250 390 497 577 469 666 568 549 533 697 751 796 999 1486 1654 1586 1396 1313 1188 1098
664 556 724 742 698 805 839 759 794 769 1416 1081 758 489 256 297 100 71 3 0 0 87 37 161 88 152 380 660 548 704 594 568 558 574 585 640 805 1119 1386 1507 1533 1548 1511
668 691 882 996 941 990 953 997 1066 731 994 1162 928 1066 573 438 357 114 0 0 100 0 186 114 98 3 12 9 209 631 843 804 629 559 481 433 392 487 717 924 1040 1147 1274
894 979 1083 723 906 950 1201 1110 1119 857 906 1281 1308 1121 1182 665 420 274 78 88 256 140 72 97 163 0 0 7 110 61 549 638 474 393 418 338 267 257 290 374 447 514 511
1546 1367 1378 1195 977 1219 1248 897 918 1298 1338 1392 937 724 1095 1291 915 762 748 491 354 336 210 155 58 0 36 1 0 24 2 0 529 293 218 218 165 131 95 95 143 164 114
1733 1409 1171 1163 1310 1136 989 1094 996 735 829 1299 1258 755 821 1084 783 889 612 381 594 448 436 484 132 44 19 0 0 0 0 165 404 478 171 215 131 113 89 35 0 0 0
1490 1416 1198 1269 1248 1365 1262 1237 1127 995 700 625 953 1014 947 929 768 854 701 799 571 400 417 265 462 359 129 35 0 2 161 354 1083 890 603 450 214 149 91 74 35 0 0
947 949 939 850 863 922 1039 1044 1018 1067 1123 1080 1040 1079 900 667 733 720 570 699 878 749 859 697 365 566 266 239 186 0 0 0 150 1172 936 635 390 248 115 83 60 5 0
79 9 73 525 675 835 794 894 1033 795 822 865 876 872 902 965 958 952 804 695 841 755 365 300 177 336 497 465 120 135 229 505 694 1218 1364 726 377 183 40 3 0 0 0
33 24 94 95 131 192 112 353 1095 950 851 901 992 994 885 774 771 727 653 760 818 827 708 527 201 180 171 348 313 427 282 629 986 1142 870 748 536 370 158 39 13 38 55
0 0 0 0 0 14 61 4 0 0 0 22 169 366 432 697 805 746 700 644 689 671 523 511 557 533 484 313 210 410 427 467 336 259 412 265 293 438 185 13 4 113 27
0 0 0 0 0 0 0 0 0 0 0 0 0 0 0 0 239 281 689 1066 929 767 635 742 707 812 738 602 501 274 492 503 388 427 402 396 164 159 1 0 0 26 8
0 0 0 0 0 0 0 0 0 0 0 0 0 0 4 8 0 0 0 9 318 742 813 567 491 631 761 812 726 584 373 373 394 392 463 298 591 415 267 300 226 103 23
0 0 0 0 0 0 0 0 0 0 0 0 0 0 0 0 0 0 0 0 0 76 701 835 741 832 801 719 706 551 617 519 456 328 353 207 266 308 529 334 302 288 188
0 0 0 0 0 0 0 0 0 0 0 0 0 0 0 0 0 0 0 0 0 0 0 56 230 527 602 518 543 376 611 585 531 548 576 494 379 622 372 501 575 575 657
CIN
0 0 0 -62 -26 -41 -44 -37 -27 -26 -28 -37 -45 -48 -123 -90 -93 -72 -49 -23 -24 -20 -11 -4 -1 -8 0 -8 -5 0 -30 -23 0 -1 -25 -39 -39 -11 -2 -1 -1 -16 -18
0 0 0 -16 -36 -71 -47 -42 -32 -32 -41 -9 -85 -53 -46 -99 -71 -137 -140 -57 -24 -33 -20 -7 0 -8 -25 -1 -2 -19 -5 -39 -12 0 -2 -41 -36 -5 -1 -1 -9 -46 -29
-91 -64 -71 0 0 -67 -48 -35 -17 -42 -52 -72 -88 -47 -58 -69 -117 -118 -164 -105 -40 -14 -28 -15 -8 -1 -7 -55 -29 -7 -26 -5 -2 0 -1 -5 -23 -6 -4 -45 -51 -7 -6
-38 -70 -81 -139 0 -53 -32 -44 -25 -46 -51 -35 -37 -45 -57 -65 -64 -121 -110 -79 -62 -38 -11 -24 -7 -2 -12 -23 -32 -22 -1 0 -4 -4 -3 -10 -24 -4 -3 -31 -74 -60 -33
-60 -100 -140 0 0 -63 -36 -19 -22 -35 -37 -28 -34 -39 -45 -21 -44 -90 -88 -90 -76 -86 -66 -45 -15 0 -19 -10 -19 -19 -8 -1 -3 -11 -1 -38 -25 -12 -5 -59 -29 -28 -14
-90 -46 -126 -136 -78 -57 -26 -20 -30 -50 -67 -38 -21 -51 -63 -48 -48 -60 -86 -96 -101 -109 -94 -98 -49 -15 -10 -1 -9 -8 -7 -6 -2 -12 -3 -45 -41 -15 -18 -66 -91 -58 -59
-198 -91 -92 0 0 -1 -40 -20 -52 -55 -63 -94 -48 -36 -27 -74 -41 -65 -97 -61 -75 -70 -97 -89 -126 -83 -48 -25 -4 -13 -7 -5 -5 -15 -4 -26 -76 -53 -72 -124 -86 -54 -65
-144 -69 -83 -68 -41 -15 -46 -26 -33 -63 0 0 -81 -58 -31 -32 -52 -46 -62 -47 -30 -54 -56 -94 -90 -96 -111 -82 -37 -18 -14 -4 0 -13 -23 -23 -57 -73 -92 -120 -119 -45 -65
-64 -43 -53 -45 -19 -16 -41 -33 -16 -75 -106 -63 -126 -27 -51 -23 -92 -87 -78 -84 -81 -42 -54 -65 -87 -88 -107 -127 -129 -36 -25 -25 -4 -3 -14 -24 -62 -106 -119 -120 -127 -74 -105
-54 -31 -36 -13 -27 -7 -17 -42 -21 -37 -41 -17 -62 -84 -137 -158 -66 -57 -116 -107 0 -23 -34 -48 -64 -73 -95 -106 -126 -107 -85 -70 -43 -21 -4 -7 -28 -80 -63 -55 -56 -67 -107
-96 -51 -43 -52 -49 -47 -44 -34 -36 -30 -31 -27 -61 -130 -107 -216 -252 -163 -43 -5 -74 -67 -82 -22 -34 -41 -68 -95 -90 -110 -99 -77 -79 -76 -43 -7 0 -8 -32 -41 -54 -75 -84
-51 -62 -57 -85 -40 -24 -25 -22 -15 -16 -14 -28 -47 -83 -144 -151 -166 -36 -171 -98 -117 -74 -95 -94 -83 -64 -40 -43 -66 -69 -82 -70 -59 -58 -64 -55 -12 -1 -8 -23 -30 -41 -43
-85 -101 -78 -76 -65 -40 -34 -44 -39 -39 -8 -18 -25 -27 -65 -72 -116 -130 -150 0 0 -135 -206 -140 -165 -127 -118 -73 -61 -43 -72 -79 -87 -89 -91 -89 -73 -31 -7 -1 -1 -3 -7
-75 -80 -66 -60 -57 -45 -46 -29 -13 -38 -24 -18 -17 -19 -24 -59 -75 -111 0 0 -53 0 -127 -147 -254 -173 -155 -22 -149 -97 -43 -44 -71 -90 -118 -124 -137 -118 -69 -47 -26 -12 -2
-79 -68 -40 -77 -57 -34 -11 -19 -24 -34 -23 -13 -12 -20 -15 -20 -55 -85 -146 -85 -36 -42 -98 -127 -133 0 0 -38 -253 -204 -102 -72 -57 -77 -98 -140 -163 -173 -164 -136 -107 -90 -88
-27 -48 -25 -27 -37 -14 -9 -21 -21 -16 -9 -8 -16 -27 -20 -11 -20 -24 -39 -54 -60 -23 -43 -103 -128 0 -260 -12 0 -136 -44 0 -92 -103 -110 -150 -178 -204 -243 -263 -243 -217 -216
-10 -15 -20 -23 -12 -9 -13 -12 -13 -28 -25 -9 -7 -23 -21 -12 -23 -28 -38 -34 -24 -26 -17 -31 -125 -179 -70 0 0 0 0 -222 -115 -125 -170 -154 -178 -192 -217 -259 0 0 0
-14 -15 -14 -9 -9 -6 -8 -7 -8 -12 -30 -34 -13 -13 -17 -17 -17 -18 -32 -39 -37 -38 -27 -18 -37 -87 -126 -217 0 -13 -145 -147 -73 -83 -75 -107 -182 -173 -192 -226 -265 0 0
-29 -13 -17 -18 -22 -22 -19 -17 -15 -15 -13 -11 -11 -9 -14 -19 -18 -13 -15 -24 -31 -35 -27 -26 -29 -69 -72 -91 -98 0 0 0 -97 -39 -56 -76 -118 -131 -196 -232 -267 -105 0
-239 -141 -230 -73 -18 -7 -14 -18 -17 -28 -28 -23 -24 -20 -14 -8 -8 -13 -17 -21 -17 -15 -33 -36 -48 -34 -36 -51 -93 -61 -69 -66 -37 -33 -23 -71 -120 -200 -306 -145 0 0 0
-276 -54 -222 -215 -169 -124 -180 -83 -9 -10 -10 -10 -11 -12 -14 -18 -19 -16 -18 -22 -14 -11 -17 -36 -95 -84 -58 -35 -30 -36 -27 -26 -35 -36 -41 -83 -116 -156 -225 -313 -242 -282 -265
0 0 0 0 0 -230 -208 -115 0 0 0 -253 -157 -79 -58 -14 -13 -16 -19 -24 -19 -11 -18 -21 -28 -43 -67 -54 -56 -39 -41 -17 -14 -84 -48 -96 -163 -100 -150 -259 -116 -252 -275
0 0 0 0 0 0 0 0 0 0 0 0 0 0 0 0 -40 -54 -27 -6 -12 -19 -22 -13 -14 -23 -43 -63 -43 -31 -22 -33 -31 -40 -36 -41 -164 -147 -20 0 0 -275 -195
0 0 0 0 0 0 0 0 0 0 0 0 0 0 -170 -140 0 0 0 -215 -77 -8 -12 -27 -33 -22 -28 -30 -38 -33 -32 -25 -42 -40 -44 -27 -56 -75 -111 -113 -147 -185 -129
0 0 0 0 0 0 0 0 0 0 0 0 0 0 0 -2 0 0 0 0 0 -258 -11 -12 -16 -15 -20 -32 -31 -38 -30 -23 -12 -58 -67 -32 -58 -63 -60 -81 -122 -115 -161
0 0 0 0 0 0 0 0 0 0 0 0 0 0 0 0 0 0 0 0 0 0 0 -179 -82 -17 -13 -16 -26 -40 -22 -14 -14 -1 -51 -22 -43 -25 -32 -51 -65 -80 -81
Wind_Speed
13 15 21 22 22 20 19 18 15 15 14 11 12 15 12 20 16 20 20 21 24 28 33 31 33 31 25 23 24 21 21 24 23 22 23 23 25 24 23 21 18 17 16
12 14 15 24 22 20 19 18 18 10 12 12 13 15 14 19 17 20 22 23 28 30 30 29 33 32 30 26 26 24 25 23 25 23 23 23 24 24 21 21 20 19 18
11 14 17 24 23 21 20 19 18 17 10 12 14 15 16 19 20 20 24 23 26 28 28 30 32 32 31 29 28 27 25 27 25 24 24 25 25 24 22 20 21 21 20
9 14 17 21 24 20 18 19 18 14 15 14 12 13 15 18 20 21 22 22 24 24 27 29 31 30 31 30 30 30 29 29 27 25 25 25 24 23 21 20 22 22 21
8 14 17 24 24 22 20 17 18 14 16 16 12 14 17 18 18 20 21 20 21 23 24 27 28 29 29 31 32 32 31 30 28 27 26 25 24 22 22 21 22 23 23
6 11 21 24 24 23 20 17 18 17 16 17 10 15 14 16 15 15 17 20 21 21 22 23 26 27 28 32 33 34 33 32 30 28 27 26 24 24 23 23 23 24 24
3 11 25 25 25 25 21 19 18 18 17 18 17 16 14 12 18 14 14 16 20 21 20 21 24 23 26 31 34 35 35 35 32 30 30 29 27 26 25 25 25 25 25
15 20 25 26 25 25 24 18 17 18 17 19 15 13 13 15 13 12 12 11 13 13 21 17 20 22 21 27 33 37 37 37 35 34 32 31 29 29 28 27 27 26 27
20 23 24 26 26 24 24 21 18 17 17 15 17 14 7 13 17 17 13 13 10 3 24 14 16 19 22 22 27 33 35 37 36 35 34 33 32 31 30 29 29 28 28
20 22 26 26 26 25 23 22 19 18 16 16 15 17 15 14 14 10 19 19 19 17 9 15 15 14 20 22 23 24 30 35 36 37 36 35 34 33 32 31 30 30 29
19 20 22 25 26 25 24 23 22 19 16 3 12 14 13 14 14 14 14 19 19 20 18 16 3 9 10 17 16 19 27 32 34 34 35 36 36 34 33 33 32 31 31
18 19 20 22 24 24 22 22 23 19 17 14 13 13 13 11 14 15 13 19 20 19 22 19 14 15 21 26 11 13 22 27 31 32 33 33 34 35 35 35 34 33 32
16 17 18 19 21 21 20 20 21 21 17 13 13 12 11 12 13 13 13 12 11 21 20 22 20 21 19 20 33 33 19 25 28 30 31 31 32 34 34 36 36 35 35
14 15 16 17 18 19 20 20 20 18 15 14 13 15 10 10 11 11 12 12 11 9 8 6 21 22 24 25 27 28 32 32 28 29 28 30 29 29 31 33 37 38 38
14 14 14 14 15 16 17 16 18 15 13 11 8 10 12 9 9 8 10 7 8 8 9 7 7 15 17 22 28 28 29 34 31 29 30 28 28 27 26 28 31 33 33
12 12 13 13 14 15 15 15 15 17 15 14 11 12 13 13 10 8 7 8 7 3 11 4 7 9 11 10 24 28 36 38 36 30 30 28 28 28 26 25 25 28 30
15 10 12 13 13 14 14 14 14 15 17 14 13 14 13 9 6 9 5 4 5 6 1 2 8 5 6 10 13 10 30 35 38 33 29 27 28 28 28 27 27 28 27
9 20 9 11 20 17 14 12 12 12 14 14 11 8 11 9 5 6 11 11 2 2 4 1 5 2 2 2 6 9 10 18 34 33 28 25 24 25 27 27 26 28 30
18 19 17 15 17 11 7 11 9 11 12 12 10 9 10 11 8 4 4 9 7 3 7 11 9 7 2 8 2 6 12 19 25 33 28 28 26 24 23 24 21 18 22
21 22 22 19 17 16 13 6 3 3 3 6 9 9 8 8 7 5 5 6 6 6 7 8 7 5 6 8 7 11 8 7 6 28 28 22 22 11 12 13 15 16 17
23 24 24 24 24 23 20 20 18 16 15 14 14 13 9 7 8 8 8 8 8 9 9 9 9 8 11 13 12 13 15 14 14 13 19 22 19 16 17 21 26 23 21
23 24 25 25 26 25 23 23 22 22 22 22 22 22 22 21 19 16 12 12 12 13 12 12 12 11 12 13 15 19 17 21 24 20 19 19 15 17 18 22 17 18 21
25 25 24 24 24 25 27 28 28 24 23 24 25 26 27 25 27 29 29 25 22 16 15 17 17 17 19 20 18 16 20 23 23 24 22 26 19 21 31 17 28 10 12
27 27 27 27 26 25 26 29 30 29 28 27 27 28 29 30 30 32 33 33 29 24 22 22 21 20 20 22 22 22 21 25 28 28 25 30 27 30 32 34 25 13 12
28 28 28 28 28 29 30 31 32 32 32 32 31 30 30 31 31 31 33 35 34 31 28 26 25 24 24 24 23 29 30 31 33 31 28 32 33 33 32 37 37 31 18
29 27 26 26 27 29 30 30 29 29 32 32 32 31 32 32 25 27 31 33 35 35 34 33 32 31 30 32 32 29 30 31 34 37 28 28 32 28 35 33 34 35 32
Wind_Direction
142 155 204 224 235 222 217 216 190 188 143 102 161 155 127 172 175 177 168 164 163 168 199 215 185 172 155 147 148 136 134 141 137 129 137 135 160 166 159 179 205 223 228
124 157 174 226 242 213 226 237 231 96 108 80 129 143 136 150 164 166 167 173 173 175 176 175 177 174 170 161 162 156 155 149 150 145 149 147 152 162 152 161 195 216 220
130 150 180 231 218 233 238 246 254 318 246 145 134 150 154 169 170 165 170 173 180 173 173 175 173 174 175 174 173 168 161 166 158 157 159 164 166 170 159 159 181 209 220
111 158 187 208 226 249 267 247 282 263 198 172 124 119 130 144 157 151 147 169 171 164 171 173 177 177 180 179 178 180 178 180 172 167 167 169 168 171 162 165 186 204 218
69 163 183 216 230 243 230 243 271 211 237 243 169 148 147 156 130 138 146 123 141 156 160 171 177 179 179 182 183 184 184 184 180 177 173 173 172 171 173 177 190 204 215
62 142 198 211 226 224 233 294 265 228 239 279 304 354 325 177 92 117 128 143 155 143 147 157 171 177 179 185 188 191 189 188 184 182 181 182 178 179 184 191 197 205 218
39 149 210 213 214 215 215 227 266 244 295 300 321 18 320 48 175 128 114 140 157 155 145 153 161 166 180 190 195 196 195 195 193 191 191 191 191 192 195 199 205 214 224
166 176 201 207 208 211 231 188 198 246 269 309 312 212 182 326 334 18 23 340 164 133 164 143 153 167 171 183 196 200 198 200 201 200 201 200 200 202 205 207 207 215 226
174 183 191 208 212 204 209 209 195 201 240 215 280 308 348 142 261 270 312 334 331 71 190 138 144 158 173 173 182 193 196 203 204 205 205 207 209 209 210 211 212 218 226
186 189 210 207 216 215 212 196 202 191 188 204 32 20 72 110 14 86 271 268 268 290 182 154 156 149 166 175 175 182 195 203 207 210 211 211 212 212 213 213 216 221 227
181 190 201 207 205 206 207 203 201 207 164 47 78 108 132 101 95 125 158 274 276 278 285 195 124 155 158 167 167 181 197 206 210 211 213 215 214 213 215 216 218 221 228
181 185 191 198 202 199 194 195 205 186 174 154 136 115 120 121 103 102 129 210 253 278 264 295 313 310 282 267 178 180 195 202 209 211 212 212 212 214 216 219 221 224 229
186 181 178 179 187 185 182 186 188 192 174 149 158 146 118 144 112 111 133 121 137 276 274 279 299 295 296 294 248 223 194 202 206 210 212 212 213 215 216 219 222 226 229
158 157 165 172 179 183 182 182 178 177 174 171 168 177 115 124 118 105 128 97 130 123 67 76 281 297 282 284 274 272 260 214 208 211 210 212 211 211 213 216 222 227 230
165 146 139 146 161 168 173 164 177 173 165 153 132 157 166 143 142 136 154 123 111 151 24 111 93 350 345 279 280 275 274 259 215 212 214 210 210 208 207 211 215 218 219
169 145 145 143 158 165 166 167 171 183 183 179 174 178 184 191 166 134 137 160 181 94 205 130 160 27 43 28 303 275 253 254 244 216 217 213 211 210 207 206 209 212 214
3 69 152 163 165 177 171 172 175 182 192 187 188 187 191 177 156 185 166 49 55 30 27 89 177 124 37 21 33 147 230 234 243 222 215 215 215 213 212 210 210 211 211
95 256 39 167 224 206 187 176 182 182 189 195 189 185 198 198 200 199 208 210 206 206 355 340 8 16 16 29 159 181 192 209 230 223 214 213 213 213 214 213 212 214 215
358 339 340 344 331 351 173 192 188 192 195 198 198 199 207 210 217 232 231 220 215 323 331 335 336 341 284 339 271 207 207 209 212 266 283 223 220 218 217 217 217 220 219
336 327 328 335 340 340 350 0 331 289 238 216 214 217 221 223 231 257 257 251 247 251 244 247 262 277 315 327 322 316 311 311 235 282 286 300 300 278 231 237 238 261 262
326 323 318 317 320 325 334 331 328 328 328 324 322 320 310 280 264 278 290 293 285 281 274 269 264 293 308 312 309 313 311 308 311 304 307 303 306 304 301 300 290 279 276
337 332 324 321 315 318 321 325 326 323 321 320 318 318 319 320 318 312 291 264 276 283 286 289 288 273 295 307 309 312 308 305 304 306 306 307 310 302 300 303 299 288 278
335 333 333 332 327 322 316 313 313 319 320 317 315 313 312 313 312 310 309 310 308 299 286 287 290 290 299 303 305 296 302 304 301 304 306 300 303 300 297 304 287 247 245
330 328 326 326 327 329 326 320 317 316 314 314 314 311 309 308 307 306 304 304 306 307 305 300 295 293 291 296 299 298 295 298 299 298 299 296 296 293 296 291 299 287 252
331 325 324 321 322 321 319 317 316 314 311 310 311 312 310 308 308 307 306 304 303 304 305 303 300 299 296 296 295 299 296 295 293 294 294 293 292 289 292 288 286 290 288
331 333 330 330 327 324 321 321 325 320 315 313 312 312 311 312 316 317 313 310 307 305 304 303 303 301 300 299 297 294 294 292 292 292 295 291 290 290 289 289 287 284 286